Time,TemperatureF,DewpointF,PressureIn,WindDirection,WindDirectionDegrees,WindSpeedMPH,WindSpeedGustMPH,Humidity,HourlyPrecipIn,Conditions,Clouds,dailyrainin,SoftwareType,DateUTC
2013-06-09 00:02:00,60.0,56.0,29.92,West,261,0.0,-999.0,87,-99.99,,,-99.99,,2013-06-09 07:02:00,
2013-06-09 00:12:00,60.0,56.0,29.92,West,261,0.0,-999.0,87,-99.99,,,-99.99,,2013-06-09 07:12:00,
2013-06-09 00:22:00,61.0,57.0,29.92,West,262,0.0,-999.0,87,-99.99,,,-99.99,,2013-06-09 07:22:00,
2013-06-09 00:32:00,61.0,57.0,29.92,West,262,0.0,-999.0,87,-99.99,,,-99.99,,2013-06-09 07:32:00,
2013-06-09 00:42:00,61.0,57.0,29.92,West,262,0.0,-999.0,87,-99.99,,,-99.99,,2013-06-09 07:42:00,
2013-06-09 00:52:00,61.0,57.0,29.92,West,262,0.0,-999.0,87,-99.99,,,-99.99,,2013-06-09 07:52:00,
2013-06-09 01:02:00,61.0,57.0,29.92,West,262,0.0,-999.0,87,-99.99,,,-99.99,,2013-06-09 08:02:00,
2013-06-09 01:11:00,61.0,57.0,29.92,West,262,0.0,-999.0,87,-99.99,,,-99.99,,2013-06-09 08:11:00,
2013-06-09 01:22:00,60.0,56.0,29.91,West,262,0.0,-999.0,87,-99.99,,,-99.99,,2013-06-09 08:22:00,
2013-06-09 01:32:00,60.0,56.0,29.92,West,262,0.0,-999.0,87,-99.99,,,-99.99,,2013-06-09 08:32:00,
2013-06-09 01:41:00,60.0,56.0,29.92,West,262,0.0,-999.0,87,-99.99,,,-99.99,,2013-06-09 08:41:00,
2013-06-09 01:53:00,61.0,57.0,29.91,West,262,0.0,-999.0,87,-99.99,,,-99.99,,2013-06-09 08:53:00,
2013-06-09 02:02:00,61.0,57.0,29.91,West,262,0.0,-999.0,87,-99.99,,,-99.99,,2013-06-09 09:02:00,
2013-06-09 02:11:00,61.0,57.0,29.91,West,262,0.0,-999.0,87,-99.99,,,-99.99,,2013-06-09 09:11:00,
2013-06-09 02:22:00,61.0,57.0,29.91,West,261,0.0,-999.0,87,-99.99,,,-99.99,,2013-06-09 09:22:00,
2013-06-09 02:33:00,61.0,57.0,29.91,West,261,0.0,-999.0,87,-99.99,,,-99.99,,2013-06-09 09:33:00,
2013-06-09 02:43:00,61.0,57.0,29.91,West,261,0.0,-999.0,87,-99.99,,,-99.99,,2013-06-09 09:43:00,
2013-06-09 02:52:00,61.0,58.0,29.91,West,262,0.0,-999.0,89,-99.99,,,-99.99,,2013-06-09 09:52:00,
2013-06-09 03:03:00,61.0,57.0,29.90,West,261,0.0,-999.0,87,-99.99,,,-99.99,,2013-06-09 10:03:00,
2013-06-09 03:12:00,61.0,57.0,29.90,West,261,0.0,-999.0,87,-99.99,,,-99.99,,2013-06-09 10:12:00,
2013-06-09 03:22:00,61.0,57.0,29.90,West,262,0.0,-999.0,87,-99.99,,,-99.99,,2013-06-09 10:22:00,
2013-06-09 03:32:00,61.0,57.0,29.90,West,262,0.0,-999.0,87,-99.99,,,-99.99,,2013-06-09 10:32:00,
2013-06-09 03:42:00,61.0,57.0,29.90,West,262,0.0,-999.0,87,-99.99,,,-99.99,,2013-06-09 10:42:00,
2013-06-09 03:52:00,61.0,57.0,29.90,West,262,0.0,-999.0,87,-99.99,,,-99.99,,2013-06-09 10:52:00,
2013-06-09 04:02:00,61.0,57.0,29.90,West,262,0.0,-999.0,87,-99.99,,,-99.99,,2013-06-09 11:02:00,
2013-06-09 04:11:00,61.0,57.0,29.90,West,262,0.0,-999.0,87,-99.99,,,-99.99,,2013-06-09 11:11:00,
2013-06-09 04:22:00,61.0,57.0,29.89,West,262,0.0,-999.0,87,-99.99,,,-99.99,,2013-06-09 11:22:00,
2013-06-09 04:32:00,61.0,57.0,29.89,West,262,0.0,-999.0,87,-99.99,,,-99.99,,2013-06-09 11:32:00,
2013-06-09 04:42:00,61.0,57.0,29.89,West,262,0.0,-999.0,87,-99.99,,,-99.99,,2013-06-09 11:42:00,
2013-06-09 04:52:00,61.0,57.0,29.89,West,261,0.0,-999.0,87,-99.99,,,-99.99,,2013-06-09 11:52:00,
2013-06-09 05:02:00,61.0,57.0,29.89,West,261,0.0,-999.0,87,-99.99,,,-99.99,,2013-06-09 12:02:00,
2013-06-09 05:11:00,61.0,57.0,29.89,West,261,0.0,-999.0,87,-99.99,,,-99.99,,2013-06-09 12:11:00,
2013-06-09 05:22:00,61.0,57.0,29.89,West,262,0.0,-999.0,87,-99.99,,,-99.99,,2013-06-09 12:22:00,
2013-06-09 05:32:00,61.0,57.0,29.89,West,261,0.0,-999.0,87,-99.99,,,-99.99,,2013-06-09 12:32:00,
2013-06-09 05:42:00,61.0,57.0,29.89,West,261,0.0,-999.0,87,-99.99,,,-99.99,,2013-06-09 12:42:00,
2013-06-09 05:52:00,61.0,57.0,29.90,West,262,0.0,-999.0,87,-99.99,,,-99.99,,2013-06-09 12:52:00,
2013-06-09 06:02:00,61.0,57.0,29.90,West,262,0.0,-999.0,88,-99.99,,,-99.99,,2013-06-09 13:02:00,
2013-06-09 06:12:00,61.0,57.0,29.90,West,262,0.0,-999.0,88,-99.99,,,-99.99,,2013-06-09 13:12:00,
2013-06-09 06:22:00,61.0,57.0,29.91,West,262,0.0,-999.0,88,-99.99,,,-99.99,,2013-06-09 13:22:00,
2013-06-09 06:32:00,61.0,58.0,29.91,West,262,0.0,-999.0,89,-99.99,,,-99.99,,2013-06-09 13:32:00,
2013-06-09 06:42:00,61.0,58.0,29.91,West,262,0.0,-999.0,89,-99.99,,,-99.99,,2013-06-09 13:42:00,
2013-06-09 06:52:00,61.0,58.0,29.91,West,261,0.0,-999.0,89,-99.99,,,-99.99,,2013-06-09 13:52:00,
2013-06-09 07:02:00,61.0,58.0,29.91,West,261,0.0,-999.0,89,-99.99,,,-99.99,,2013-06-09 14:02:00,
2013-06-09 07:12:00,61.0,58.0,29.91,West,261,0.0,-999.0,89,-99.99,,,-99.99,,2013-06-09 14:12:00,
2013-06-09 07:22:00,60.0,57.0,29.91,West,261,1.0,-999.0,89,-99.99,,,-99.99,,2013-06-09 14:22:00,
2013-06-09 07:32:00,61.0,58.0,29.91,West,262,0.0,-999.0,89,-99.99,,,-99.99,,2013-06-09 14:32:00,
2013-06-09 07:42:00,61.0,58.0,29.91,West,262,0.0,-999.0,89,-99.99,,,-99.99,,2013-06-09 14:42:00,
2013-06-09 07:52:00,61.0,58.0,29.92,West,262,0.0,-999.0,89,-99.99,,,-99.99,,2013-06-09 14:52:00,
2013-06-09 08:02:00,61.0,58.0,29.92,West,262,1.0,-999.0,89,-99.99,,,-99.99,,2013-06-09 15:02:00,
2013-06-09 08:12:00,61.0,58.0,29.92,West,262,1.0,-999.0,89,-99.99,,,-99.99,,2013-06-09 15:12:00,
2013-06-09 08:22:00,61.0,58.0,29.92,West,262,0.0,-999.0,89,-99.99,,,-99.99,,2013-06-09 15:22:00,
2013-06-09 08:33:00,62.0,58.0,29.92,West,262,0.0,-999.0,88,-99.99,,,-99.99,,2013-06-09 15:33:00,
2013-06-09 08:43:00,62.0,58.0,29.92,West,262,0.0,-999.0,88,-99.99,,,-99.99,,2013-06-09 15:43:00,
2013-06-09 08:53:00,62.0,58.0,29.93,West,262,0.0,-999.0,87,-99.99,,,-99.99,,2013-06-09 15:53:00,
2013-06-09 09:03:00,63.0,58.0,29.93,West,262,0.0,-999.0,85,-99.99,,,-99.99,,2013-06-09 16:03:00,
2013-06-09 09:13:00,63.0,58.0,29.93,West,262,0.0,-999.0,85,-99.99,,,-99.99,,2013-06-09 16:13:00,
2013-06-09 09:23:00,63.0,58.0,29.93,West,262,0.0,-999.0,83,-99.99,,,-99.99,,2013-06-09 16:23:00,
2013-06-09 09:33:00,64.0,58.0,29.93,West,262,0.0,-999.0,80,-99.99,,,-99.99,,2013-06-09 16:33:00,
2013-06-09 09:42:00,64.0,58.0,29.93,West,262,0.0,-999.0,80,-99.99,,,-99.99,,2013-06-09 16:42:00,
2013-06-09 09:52:00,66.0,59.0,29.92,West,261,0.0,-999.0,77,-99.99,,,-99.99,,2013-06-09 16:52:00,
2013-06-09 10:02:00,68.0,59.0,29.92,West,261,0.0,-999.0,72,-99.99,,,-99.99,,2013-06-09 17:02:00,
2013-06-09 10:12:00,68.0,59.0,29.92,West,261,0.0,-999.0,72,-99.99,,,-99.99,,2013-06-09 17:12:00,
2013-06-09 10:22:00,69.0,58.0,29.92,West,261,1.0,-999.0,69,-99.99,,,-99.99,,2013-06-09 17:22:00,
2013-06-09 10:32:00,70.0,59.0,29.92,West,261,0.0,-999.0,68,-99.99,,,-99.99,,2013-06-09 17:32:00,
2013-06-09 10:42:00,70.0,59.0,29.92,West,261,0.0,-999.0,68,-99.99,,,-99.99,,2013-06-09 17:42:00,
2013-06-09 10:52:00,71.0,59.0,29.92,West,261,0.0,-999.0,66,-99.99,,,-99.99,,2013-06-09 17:52:00,
2013-06-09 11:02:00,71.0,59.0,29.92,West,261,1.0,-999.0,66,-99.99,,,-99.99,,2013-06-09 18:02:00,
2013-06-09 11:11:00,71.0,59.0,29.92,West,261,1.0,-999.0,66,-99.99,,,-99.99,,2013-06-09 18:11:00,
2013-06-09 11:21:00,72.0,59.0,29.92,WSW,256,2.0,-999.0,64,-99.99,,,-99.99,,2013-06-09 18:21:00,
2013-06-09 11:32:00,73.0,60.0,29.91,West,265,2.0,-999.0,64,-99.99,,,-99.99,,2013-06-09 18:32:00,
2013-06-09 11:42:00,73.0,60.0,29.91,West,265,2.0,-999.0,64,-99.99,,,-99.99,,2013-06-09 18:42:00,
2013-06-09 11:52:00,74.0,60.0,29.91,WSW,254,1.0,-999.0,62,-99.99,,,-99.99,,2013-06-09 18:52:00,
2013-06-09 12:02:00,75.0,61.0,29.91,WSW,255,3.0,-999.0,62,-99.99,,,-99.99,,2013-06-09 19:02:00,
2013-06-09 12:12:00,75.0,61.0,29.91,WSW,255,3.0,-999.0,62,-99.99,,,-99.99,,2013-06-09 19:12:00,
2013-06-09 12:22:00,75.0,60.0,29.91,SW,232,2.0,-999.0,60,-99.99,,,-99.99,,2013-06-09 19:22:00,
2013-06-09 12:32:00,75.0,61.0,29.91,West,264,4.0,-999.0,61,-99.99,,,-99.99,,2013-06-09 19:32:00,
2013-06-09 12:42:00,75.0,61.0,29.91,West,264,4.0,-999.0,61,-99.99,,,-99.99,,2013-06-09 19:42:00,
2013-06-09 12:52:00,75.0,61.0,29.91,SW,232,4.0,-999.0,61,-99.99,,,-99.99,,2013-06-09 19:52:00,
2013-06-09 13:02:00,75.0,60.0,29.91,West,269,5.0,-999.0,60,-99.99,,,-99.99,,2013-06-09 20:02:00,
2013-06-09 13:12:00,75.0,60.0,29.91,West,269,5.0,-999.0,60,-99.99,,,-99.99,,2013-06-09 20:12:00,
2013-06-09 13:22:00,75.0,61.0,29.90,WSW,257,5.0,-999.0,62,-99.99,,,-99.99,,2013-06-09 20:22:00,
2013-06-09 13:32:00,74.0,61.0,29.91,WNW,286,6.0,-999.0,63,-99.99,,,-99.99,,2013-06-09 20:32:00,
2013-06-09 13:42:00,74.0,61.0,29.91,WNW,286,6.0,-999.0,63,-99.99,,,-99.99,,2013-06-09 20:42:00,
2013-06-09 13:52:00,72.0,60.0,29.91,West,281,7.0,-999.0,66,-99.99,,,-99.99,,2013-06-09 20:52:00,
2013-06-09 14:02:00,73.0,61.0,29.91,West,275,5.0,-999.0,66,-99.99,,,-99.99,,2013-06-09 21:02:00,
2013-06-09 14:11:00,73.0,61.0,29.91,NW,322,5.0,-999.0,65,-99.99,,,-99.99,,2013-06-09 21:11:00,
2013-06-09 14:22:00,73.0,61.0,29.91,NW,322,5.0,-999.0,65,-99.99,,,-99.99,,2013-06-09 21:22:00,
2013-06-09 14:33:00,72.0,60.0,29.91,West,268,6.0,-999.0,66,-99.99,,,-99.99,,2013-06-09 21:33:00,
2013-06-09 14:42:00,72.0,60.0,29.91,West,268,6.0,-999.0,66,-99.99,,,-99.99,,2013-06-09 21:42:00,
2013-06-09 14:53:00,71.0,60.0,29.90,West,269,6.0,-999.0,68,-99.99,,,-99.99,,2013-06-09 21:53:00,
2013-06-09 15:02:00,71.0,60.0,29.90,WSW,251,6.0,-999.0,69,-99.99,,,-99.99,,2013-06-09 22:02:00,
2013-06-09 15:12:00,71.0,60.0,29.90,WNW,292,6.0,-999.0,68,-99.99,,,-99.99,,2013-06-09 22:12:00,
2013-06-09 15:22:00,71.0,60.0,29.90,WNW,292,6.0,-999.0,68,-99.99,,,-99.99,,2013-06-09 22:22:00,
2013-06-09 15:33:00,70.0,59.0,29.91,SW,214,6.0,-999.0,69,-99.99,,,-99.99,,2013-06-09 22:33:00,
2013-06-09 15:42:00,70.0,59.0,29.91,SW,214,6.0,-999.0,69,-99.99,,,-99.99,,2013-06-09 22:42:00,
2013-06-09 15:52:00,69.0,59.0,29.91,West,269,6.0,-999.0,70,-99.99,,,-99.99,,2013-06-09 22:52:00,
2013-06-09 16:02:00,68.0,58.0,29.91,WSW,257,5.0,-999.0,71,-99.99,,,-99.99,,2013-06-09 23:02:00,
2013-06-09 16:12:00,68.0,59.0,29.91,WSW,241,6.0,-999.0,72,-99.99,,,-99.99,,2013-06-09 23:12:00,
2013-06-09 16:22:00,68.0,59.0,29.91,WSW,241,6.0,-999.0,72,-99.99,,,-99.99,,2013-06-09 23:22:00,
2013-06-09 16:32:00,68.0,59.0,29.91,WSW,240,4.0,-999.0,72,-99.99,,,-99.99,,2013-06-09 23:32:00,
2013-06-09 16:42:00,68.0,59.0,29.91,WSW,240,4.0,-999.0,72,-99.99,,,-99.99,,2013-06-09 23:42:00,
2013-06-09 16:52:00,67.0,58.0,29.91,West,277,5.0,-999.0,73,-99.99,,,-99.99,,2013-06-09 23:52:00,
2013-06-09 17:02:00,67.0,58.0,29.91,West,265,5.0,-999.0,73,-99.99,,,-99.99,,2013-06-10 00:02:00,
2013-06-09 17:12:00,67.0,58.0,29.91,West,265,5.0,-999.0,73,-99.99,,,-99.99,,2013-06-10 00:12:00,
2013-06-09 17:22:00,67.0,58.0,29.90,NW,311,3.0,-999.0,73,-99.99,,,-99.99,,2013-06-10 00:22:00,
2013-06-09 17:32:00,67.0,58.0,29.90,West,261,4.0,-999.0,73,-99.99,,,-99.99,,2013-06-10 00:32:00,
2013-06-09 17:42:00,67.0,58.0,29.90,West,261,4.0,-999.0,73,-99.99,,,-99.99,,2013-06-10 00:42:00,
2013-06-09 17:52:00,66.0,57.0,29.90,WSW,240,3.0,-999.0,74,-99.99,,,-99.99,,2013-06-10 00:52:00,
2013-06-09 18:02:00,66.0,57.0,29.90,WSW,252,3.0,-999.0,73,-99.99,,,-99.99,,2013-06-10 01:02:00,
2013-06-09 18:11:00,66.0,57.0,29.90,WSW,252,3.0,-999.0,73,-99.99,,,-99.99,,2013-06-10 01:11:00,
2013-06-09 18:22:00,66.0,57.0,29.90,West,264,3.0,-999.0,74,-99.99,,,-99.99,,2013-06-10 01:22:00,
2013-06-09 18:32:00,66.0,57.0,29.90,SW,227,3.0,-999.0,73,-99.99,,,-99.99,,2013-06-10 01:32:00,
2013-06-09 18:42:00,66.0,57.0,29.90,SW,227,3.0,-999.0,73,-99.99,,,-99.99,,2013-06-10 01:42:00,
2013-06-09 18:52:00,65.0,56.0,29.90,WSW,247,2.0,-999.0,74,-99.99,,,-99.99,,2013-06-10 01:52:00,
2013-06-09 19:02:00,65.0,56.0,29.89,West,275,1.0,-999.0,74,-99.99,,,-99.99,,2013-06-10 02:02:00,
2013-06-09 19:12:00,65.0,56.0,29.89,West,275,1.0,-999.0,74,-99.99,,,-99.99,,2013-06-10 02:12:00,
2013-06-09 19:22:00,65.0,57.0,29.90,West,263,2.0,-999.0,75,-99.99,,,-99.99,,2013-06-10 02:22:00,
2013-06-09 19:32:00,64.0,56.0,29.89,West,266,1.0,-999.0,76,-99.99,,,-99.99,,2013-06-10 02:32:00,
2013-06-09 19:42:00,64.0,56.0,29.89,West,266,1.0,-999.0,76,-99.99,,,-99.99,,2013-06-10 02:42:00,
2013-06-09 19:52:00,64.0,57.0,29.89,West,267,0.0,-999.0,77,-99.99,,,-99.99,,2013-06-10 02:52:00,
2013-06-09 20:02:00,63.0,56.0,29.89,West,267,1.0,-999.0,77,-99.99,,,-99.99,,2013-06-10 03:02:00,
2013-06-09 20:12:00,63.0,56.0,29.89,West,267,1.0,-999.0,77,-99.99,,,-99.99,,2013-06-10 03:12:00,
2013-06-09 20:22:00,62.0,55.0,29.89,West,267,1.0,-999.0,79,-99.99,,,-99.99,,2013-06-10 03:22:00,
2013-06-09 20:32:00,62.0,56.0,29.90,West,267,1.0,-999.0,81,-99.99,,,-99.99,,2013-06-10 03:32:00,
2013-06-09 20:43:00,62.0,56.0,29.90,West,267,1.0,-999.0,81,-99.99,,,-99.99,,2013-06-10 03:43:00,
2013-06-09 20:53:00,61.0,55.0,29.90,West,267,2.0,-999.0,82,-99.99,,,-99.99,,2013-06-10 03:53:00,
2013-06-09 21:03:00,61.0,56.0,29.90,West,268,0.0,-999.0,83,-99.99,,,-99.99,,2013-06-10 04:03:00,
2013-06-09 21:12:00,61.0,56.0,29.90,West,268,0.0,-999.0,83,-99.99,,,-99.99,,2013-06-10 04:12:00,
2013-06-09 21:23:00,60.0,55.0,29.90,West,268,0.0,-999.0,84,-99.99,,,-99.99,,2013-06-10 04:23:00,
2013-06-09 21:33:00,60.0,55.0,29.91,West,267,0.0,-999.0,84,-99.99,,,-99.99,,2013-06-10 04:33:00,
2013-06-09 21:42:00,60.0,55.0,29.91,West,267,0.0,-999.0,84,-99.99,,,-99.99,,2013-06-10 04:42:00,
2013-06-09 21:52:00,60.0,55.0,29.91,West,268,0.0,-999.0,85,-99.99,,,-99.99,,2013-06-10 04:52:00,
2013-06-09 22:02:00,60.0,55.0,29.91,West,267,0.0,-999.0,85,-99.99,,,-99.99,,2013-06-10 05:02:00,
2013-06-09 22:12:00,60.0,55.0,29.91,West,267,0.0,-999.0,85,-99.99,,,-99.99,,2013-06-10 05:12:00,
2013-06-09 22:22:00,60.0,55.0,29.92,West,268,0.0,-999.0,85,-99.99,,,-99.99,,2013-06-10 05:22:00,
2013-06-09 22:32:00,60.0,55.0,29.92,West,268,0.0,-999.0,84,-99.99,,,-99.99,,2013-06-10 05:32:00,
2013-06-09 22:42:00,60.0,55.0,29.92,West,268,0.0,-999.0,84,-99.99,,,-99.99,,2013-06-10 05:42:00,
2013-06-09 22:52:00,60.0,55.0,29.93,West,268,0.0,-999.0,84,-99.99,,,-99.99,,2013-06-10 05:52:00,
2013-06-09 23:02:00,60.0,55.0,29.93,West,268,0.0,-999.0,84,-99.99,,,-99.99,,2013-06-10 06:02:00,
2013-06-09 23:11:00,60.0,55.0,29.93,West,268,0.0,-999.0,84,-99.99,,,-99.99,,2013-06-10 06:11:00,
2013-06-09 23:22:00,60.0,55.0,29.93,West,268,0.0,-999.0,84,-99.99,,,-99.99,,2013-06-10 06:22:00,
2013-06-09 23:32:00,60.0,55.0,29.92,West,268,0.0,-999.0,84,-99.99,,,-99.99,,2013-06-10 06:32:00,
2013-06-09 23:42:00,60.0,55.0,29.92,West,268,0.0,-999.0,84,-99.99,,,-99.99,,2013-06-10 06:42:00,
2013-06-09 23:52:00,60.0,55.0,29.92,West,268,0.0,-999.0,83,-99.99,,,-99.99,,2013-06-10 06:52:00,